User: anonymous   Login
Location: Caltech
(34.1382°N, 118.1253°W)
Time: 04:11:34
(UTC-08:00)
Language:

PAYLOAD A - Orbit

View from above orbital plane
View from above orbital plane
View from above satellite
View from above satellite

Ground track
Ground track

The orbit data is extracted from the following two-line orbital elements,

1 27840U 03031A   14332.19136817  .00000125  00000-0  51648-4 0  7070
2 27840 098.2228 354.1383 0099139 049.0078 027.1769 14.38747051599296
Epoch (UTC): 28 November 2014 04:35:34
Eccentricity: 0.0099139
inclination: 98.2228°
perigee height: 692 km
apogee height: 833 km
right ascension of ascending node: 354.1383°
argument of perigee: 49.0078°
revolutions per day: 14.38747051
mean anomaly at epoch: 27.1769°
orbit number at epoch: 59929

The dashed part of the orbit path shows where the satellite is in the earth's shadow,  

DLR